Orbital Elements
Epoch 2021 Sept. 23.0 TT = JDT 2459480.5
T 2021 Sept. 10.08772 TT MPC
q 1.6602711 (2000.0) P Q
n 0.13638298 Peri. 354.41672 +0.70921207 -0.68829235
a 3.7379136 Node 50.29151 +0.65425246 +0.56196417
e 0.5558295 Incl. 11.43742 +0.26262513 +0.45874820
P 7.23
From 128 observations 1992 Aug. 26-2014 Aug. 6, mean residual 0".7.
Nongravitational parameters A1 = +0.08, A2 = -0.0277.
|